Weather History for KNYC - February, 2013

Change the Weather History Date:

Wednesday, February 27, 2013

  Actual Average Record
Temperature  
Mean Temperature 42 °F 38 °F  
Max Temperature 47 °F 44 °F 72 °F (1997)
Min Temperature 36 °F 31 °F 5 °F (1900)
Degree Days  
Heating Degree Days 23 27  
Month to date heating degree days 844 805  
Since 1 July heating degree days 3353 3494  
Cooling Degree Days 0 0  
Month to date cooling degree days 0 0  
Year to date cooling degree days 0 0  
Moisture  
Dew Point 38 °F    
Average Humidity 83    
Maximum Humidity 100    
Minimum Humidity 65    
Precipitation  
Precipitation 1.56 in 0.12 in 1.56 in (2013)
Month to date precipitation 4.25 2.97  
Year to date precipitation 7.01 6.62  
Snow  
Snow 0.00 in 0.20 in 4.00 in (1873)
Month to date snowfall 12.2 8.9  
Since 1 July snowfall 18.8 21.0  
Snow Depth 0.00 in    
Sea Level Pressure  
Sea Level Pressure 29.63 in    
Wind  
Wind Speed 11 mph (ENE)    
Max Wind Speed 24 mph    
Max Gust Speed 37 mph    
Visibility 4 miles    
Events Rain    
T = Trace of Precipitation, MM = Missing Value Source: NWS Daily Summary

Daily Weather History Graph

Daily Weather History Graph

Search for Another Location

Airport or City:

Trip Planner

Search our weather history database for the weather conditions in past years. The results will help you decide how hot, cold, wet, or windy it might be!

Date:

Astronomy

Feb. 27, 2013 Rise Set
Actual Time 6:32 AM EST 5:45 PM EST
Civil Twilight 6:05 AM EST 6:12 PM EST
Nautical Twilight 5:33 AM EST 6:44 PM EST
Astronomical Twilight 5:01 AM EST 7:16 PM EST
Moon 8:04 PM EST (2/27) 7:05 AM EST (2/27)
Length of Visible Light 12h 07m
Length of Day
11h 12m
Waning Gibbous, 96% of the Moon is Illuminated
Feb 27
Waning Gibbous
Mar 4
Last Quarter
Mar 11
New
Mar 19
First Quarter
Mar 27
Full

Hourly Weather History & Observations

Time (EST) Temp. Windchill Dew Point Humidity Pressure Visibility Wind Dir Wind Speed Gust Speed Precip Events Conditions
12:51 AM 36.0 °F 26.3 °F 34.0 °F 93% 29.89 in 4.0 mi ENE 16.1 mph 27.6 mph 0.12 in Rain Rain
1:03 AM 36.0 °F 27.1 °F 34.0 °F 93% 29.91 in 1.8 mi ENE 13.8 mph 26.5 mph 0.07 in Rain Heavy Rain
1:09 AM 36.0 °F 27.1 °F 34.0 °F 93% 29.91 in 3.0 mi ENE 13.8 mph 26.5 mph 0.09 in Rain Rain
1:51 AM 36.0 °F 26.7 °F 34.0 °F 93% 29.84 in 4.0 mi East 15.0 mph 28.8 mph 0.14 in Rain Light Rain
2:13 AM 36.0 °F 26.3 °F 34.0 °F 93% 29.85 in 2.0 mi ENE 16.1 mph 32.2 mph 0.03 in Rain Rain
2:51 AM 37.0 °F 28.1 °F 35.1 °F 93% 29.77 in 2.5 mi ENE 15.0 mph 33.4 mph 0.13 in Rain Light Rain
2:59 AM 37.0 °F 27.4 °F 35.1 °F 93% 29.79 in 5.0 mi ENE 17.3 mph 33.4 mph 0.01 in Rain Light Rain
3:15 AM 37.0 °F 27.4 °F 35.1 °F 93% 29.78 in 2.0 mi ENE 17.3 mph 32.2 mph 0.03 in Rain Rain
3:30 AM 37.0 °F 28.1 °F 35.1 °F 93% 29.77 in 1.8 mi ENE 15.0 mph 32.2 mph 0.08 in Rain Rain
3:51 AM 37.0 °F 27.7 °F 35.1 °F 93% 29.74 in 2.0 mi ENE 16.1 mph 31.1 mph 0.16 in Rain Rain
4:00 AM 37.0 °F 28.1 °F 35.1 °F 93% 29.75 in 3.0 mi ENE 15.0 mph 29.9 mph 0.02 in Rain Rain
4:08 AM 37.0 °F 27.4 °F 35.1 °F 93% 29.74 in 2.5 mi East 17.3 mph 29.9 mph 0.03 in Rain Light Rain
4:17 AM 37.0 °F 28.1 °F 35.1 °F 93% 29.74 in 3.0 mi ENE 15.0 mph 29.9 mph 0.05 in Rain Rain
4:26 AM 37.0 °F 27.7 °F 36.0 °F 96% 29.73 in 2.0 mi East 16.1 mph 31.1 mph 0.08 in Rain Rain
4:51 AM 37.9 °F 28.2 °F 36.0 °F 93% 29.70 in 2.5 mi ENE 18.4 mph 35.7 mph 0.14 in Rain Light Rain
5:21 AM 37.9 °F 28.2 °F 36.0 °F 93% 29.71 in 1.5 mi ENE 18.4 mph 28.8 mph 0.12 in Rain Heavy Rain
5:48 AM 39.2 °F 30.8 °F 37.4 °F 93% 29.68 in 2.5 mi East 15.0 mph 29.9 mph 0.25 in Rain Rain
5:51 AM 39.0 °F 29.3 °F 37.0 °F 93% 29.66 in 2.0 mi ENE 19.6 mph 29.9 mph 0.27 in Rain Rain
6:44 AM 39.9 °F 31.1 °F 37.9 °F 93% 29.65 in 1.8 mi ENE 17.3 mph 33.4 mph 0.15 in Rain Rain
6:51 AM 39.9 °F 31.8 °F 37.9 °F 93% 29.62 in 2.0 mi ENE 15.0 mph 36.8 mph 0.17 in Rain Rain
7:16 AM 39.9 °F 32.1 °F 37.9 °F 93% 29.63 in 1.2 mi East 13.8 mph 32.2 mph 0.06 in Rain Light Rain
7:36 AM 39.9 °F 32.9 °F 39.0 °F 97% 29.62 in 0.8 mi ENE 11.5 mph 25.3 mph 0.13 in Rain Heavy Rain
7:51 AM 39.9 °F 32.1 °F 39.0 °F 97% 29.60 in 2.0 mi East 13.8 mph 31.1 mph 0.17 in Rain Light Rain
8:12 AM 41.0 °F 33.1 °F 39.0 °F 93% 29.62 in 1.0 mi ENE 15.0 mph 28.8 mph 0.04 in Rain Rain
8:51 AM 41.0 °F 32.5 °F 39.0 °F 93% 29.58 in 1.2 mi East 17.3 mph 27.6 mph 0.13 in Rain Rain
9:18 AM 41.0 °F 32.5 °F 39.0 °F 93% 29.59 in 2.5 mi East 17.3 mph 28.8 mph 0.03 in Rain Light Rain
9:41 AM 41.0 °F 32.2 °F 39.0 °F 93% 29.58 in 1.8 mi ENE 18.4 mph 24.2 mph 0.06 in Rain Light Rain
9:51 AM 41.0 °F 33.1 °F 39.0 °F 93% 29.56 in 2.0 mi ENE 15.0 mph 27.6 mph 0.07 in Rain Light Rain
10:15 AM 41.0 °F 33.1 °F 39.9 °F 96% 29.58 in 4.0 mi ENE 15.0 mph 26.5 mph 0.01 in   Overcast
10:45 AM 41.0 °F 33.5 °F 39.2 °F 93% 29.56 in 1.8 mi ENE 13.8 mph 26.5 mph 0.02 in Rain Heavy Rain
10:51 AM 41.0 °F 33.5 °F 39.9 °F 96% 29.54 in 1.2 mi ENE 13.8 mph 25.3 mph 0.04 in Rain Light Rain
11:01 AM 41.0 °F 32.5 °F 39.9 °F 96% 29.56 in 2.0 mi ENE 17.3 mph 26.5 mph 0.01 in Rain Light Rain
11:11 AM 41.0 °F 33.5 °F 39.9 °F 96% 29.57 in 1.8 mi ENE 13.8 mph 21.9 mph 0.01 in Rain Light Rain
11:20 AM 42.1 °F 33.3 °F 39.9 °F 92% 29.56 in 2.0 mi ENE 19.6 mph 23.0 mph 0.02 in Rain Light Rain
11:32 AM 42.1 °F 35.2 °F 39.9 °F 92% 29.55 in 1.8 mi ENE 12.7 mph 23.0 mph 0.02 in Rain Light Rain
11:44 AM 42.1 °F 35.2 °F 39.9 °F 92% 29.54 in 2.5 mi ENE 12.7 mph 19.6 mph 0.02 in   Overcast
11:51 AM 42.1 °F 34.5 °F 39.9 °F 92% 29.51 in 2.5 mi ENE 15.0 mph 24.2 mph 0.02 in   Overcast
11:59 AM 42.1 °F 34.5 °F 39.9 °F 92% 29.53 in 4.0 mi ENE 15.0 mph 24.2 mph 0.01 in   Overcast
12:29 PM 42.1 °F 35.2 °F 39.9 °F 92% 29.53 in 6.0 mi ENE 12.7 mph 20.7 mph 0.01 in   Overcast
12:49 PM 42.8 °F 36.2 °F 39.2 °F 87% 29.52 in 2.5 mi East 12.7 mph 18.4 mph 0.01 in   Overcast
12:51 PM 42.1 °F 36.1 °F 39.9 °F 92% 29.50 in 2.5 mi East 10.4 mph - 0.01 in   Overcast
1:22 PM 43.0 °F 38.8 °F 41.0 °F 93% 29.53 in 3.0 mi ENE 6.9 mph - N/A   Overcast
1:31 PM 43.0 °F 38.8 °F 41.0 °F 93% 29.52 in 2.5 mi ENE 6.9 mph - N/A   Overcast
1:42 PM 43.0 °F 39.5 °F 41.0 °F 93% 29.52 in 3.0 mi NE 5.8 mph - N/A   Overcast
1:51 PM 43.0 °F 39.5 °F 41.0 °F 93% 29.50 in 2.5 mi NE 5.8 mph - N/A   Overcast
2:15 PM 43.0 °F 40.3 °F 41.0 °F 93% 29.53 in 1.8 mi NNE 4.6 mph - N/A   Overcast
2:39 PM 44.1 °F - 42.1 °F 93% 29.54 in 2.0 mi Calm Calm - N/A   Overcast
2:49 PM 44.6 °F 43.1 °F 42.8 °F 93% 29.54 in 2.5 mi NNE 3.5 mph - N/A   Overcast
2:51 PM 44.1 °F - 43.0 °F 96% 29.52 in 2.5 mi Calm Calm - N/A   Overcast
3:19 PM 45.0 °F 43.5 °F 42.1 °F 90% 29.55 in 3.0 mi West 3.5 mph - N/A   Overcast
3:51 PM 45.0 °F - 43.0 °F 93% 29.54 in 3.0 mi Calm Calm - N/A   Overcast
4:19 PM 46.0 °F 44.8 °F 43.0 °F 89% 29.57 in 5.0 mi WNW 3.5 mph - N/A   Overcast
4:27 PM 46.0 °F 43.9 °F 43.0 °F 89% 29.58 in 6.0 mi West 4.6 mph - N/A   Overcast
4:35 PM 46.9 °F - 43.0 °F 86% 29.58 in 6.0 mi WNW 4.6 mph - N/A   Overcast
4:43 PM 46.9 °F - 43.0 °F 86% 29.58 in 7.0 mi West 6.9 mph - N/A   Overcast
4:51 PM 46.9 °F - 43.0 °F 86% 29.55 in 9.0 mi Variable 3.5 mph - N/A   Overcast
5:15 PM 46.9 °F - 37.9 °F 71% 29.59 in 10.0 mi Variable 3.5 mph - N/A   Overcast
5:51 PM 46.0 °F 42.5 °F 36.0 °F 68% 29.59 in 10.0 mi WSW 6.9 mph - N/A   Mostly Cloudy
6:51 PM 44.1 °F 38.6 °F 35.1 °F 71% 29.62 in 10.0 mi West 10.4 mph - N/A   Clear
7:51 PM 44.1 °F 39.5 °F 34.0 °F 68% 29.63 in 10.0 mi WNW 8.1 mph - N/A   Scattered Clouds
8:51 PM 45.0 °F 40.1 °F 34.0 °F 65% 29.65 in 10.0 mi West 9.2 mph 17.3 mph N/A   Overcast
9:51 PM 45.0 °F 41.8 °F 34.0 °F 65% 29.65 in 10.0 mi WNW 5.8 mph - N/A   Partly Cloudy
10:51 PM 44.1 °F 41.5 °F 35.1 °F 71% 29.63 in 10.0 mi Variable 4.6 mph - N/A   Overcast
11:51 PM 45.0 °F 42.6 °F 35.1 °F 68% 29.62 in 10.0 mi Variable 4.6 mph - N/A   Overcast